Regional Weather Roundup
Issued by NWS

Home | Current Version | Previous Version | Text Only | Print | Product List | Glossary On
Versions: 1 2 3 4 5 6 7 8 9 10 11 12 13 14 15 16 17 18 19 20 21 22 23 24 25 26 27 28 29 30 31 32 33 34 35 36 37 38 39 40 41 42 43 44 45 46 47 48 49 50
000
ASUS45 KREV 010110
RWRNV
NEVADA REGIONAL WEATHER ROUNDUP
NATIONAL WEATHER SERVICE RENO NV
600 PM PDT THU JUL 31 2014

NOTE: "FAIR" INDICATES FEW OR NO CLOUDS BELOW 12,000 FEET WITH NO
SIGNIFICANT WEATHER AND/OR OBSTRUCTIONS TO VISIBILITY.

NVZ001-003-004-010200-
WESTERN NEVADA

CITY           SKY/WX    TMP DP  RH WIND       PRES   REMARKS
RENO           CLOUDY    86  44  23 W13       30.09F
CARSON CITY    FAIR      84  41  21 NW13      30.12S
PYRAMID LAKE     N/A     86 N/A N/A N1          N/A
FALLON         PTSUNNY   92  36  14 N3        30.03F
LOVELOCK       CLOUDY    93  38  14 CALM      30.02F
HAWTHORNE      SUNNY     91  37  15 CALM      30.05F
$$

NVZ002-CAZ072-073-010200-
NORTHERN AND CENTRAL SIERRA

CITY           SKY/WX    TMP DP  RH WIND       PRES   REMARKS
S. LAKE TAHOE  CLOUDY    77  50  38 NE8       30.25S
TRUCKEE        PTSUNNY   68  61  77 SE9       30.26
SQUAW VLY 8000 NOT AVBL
BLUE CANYON    SUNNY     82  41  23 NW12      30.22S
MAMMOTH LAKES  PTSUNNY   77  39  25 N12       30.32S
BRIDGEPORT     FAIR      71  54  54 CALM      30.27S
$$

NVZ030-031-036-010200-
NORTHERN NEVADA

CITY           SKY/WX    TMP DP  RH WIND       PRES   REMARKS
ELKO           CLOUDY    67  51  56 NE15      30.23F
WINNEMUCCA     PTSUNNY   88  41  19 NE17      30.06F
WENDOVER       CLOUDY    81  45  28 W12       30.15F
$$

NVZ035-037-010200-
CENTRAL NEVADA

CITY           SKY/WX    TMP DP  RH WIND       PRES   REMARKS
ELY            MOSUNNY   74  44  34 N24G33    30.27R
EUREKA           N/A     72  48  42 N24G33    30.23R
$$

NVZ013-014-010200-
SOUTH CENTRAL NEVADA

CITY           SKY/WX    TMP DP  RH WIND       PRES   REMARKS
TONOPAH        PTSUNNY   88  36  15 NW9       30.12F
$$

NVZ017-020-022-010200-
SOUTHERN NEVADA

CITY           SKY/WX    TMP DP  RH WIND       PRES   REMARKS
LAS VEGAS      PTSUNNY  106  38   9 W16       29.79F
N. LAS VEGAS   MOSUNNY  106  37   9 W13G22    29.81F
NELLIS AFB     PTSUNNY  106  42  11 SW16G22   29.78F
HENDERSON      PTSUNNY  104  41  11 SW14      29.86F
MERCURY        SUNNY     99  40  13 SW9       29.93F
$$


USA.gov is the U.S. government's official web portal to all federal, state and local government web resources and services.